Location: B�rgermoos
(47.6500°N, 9.0667°E)
Time: 08:35:13
(UTC+00:00)

A-11 Canister half - Pass Details

Date: 12 August 2021
Orbit: 1526 x 1683 km, 47.3° (Epoch: 20 September)

Event Time Altitude Azimuth Distance (km) Brightness Sun altitude
Rises 06:10:26 0° 198° (SSW) 4,879 11.4 17.9°
Reaches altitude 10° 06:14:07 10° 187° (S) 3,911 11.1 18.5°
Maximum altitude 06:22:14 29° 133° (SE) 2,730 11.3 19.9°
Drops below altitude 10° 06:30:23 10° 79° (ENE) 3,947 13.0 21.3°
Sets 06:34:05 0° 69° (ENE) 4,931 12.8 21.9°
